Tracking 18980 objects as of 21-Feb-2018
HD Live streaming from Space Station
objects crossing your sky now

OPS 7323 (DMSP 5B F3)

Track OPS 7323 (DMSP 5B F3) now!
10-day predictions
OPS 7323 (DMSP 5B F3) is classified as:


NORAD ID: 6275
Int'l Code: 1972-089A
Perigee: 781.5 km
Apogee: 831.2 km
Inclination: 98.5 °
Period: 100.9 minutes
Semi major axis: 7177 km
RCS: 1.5352 m2 (large)
Launch date: November 9, 1972
Source: United States (US)
Launch site: AIR FORCE WESTERN TEST RANGE (AFWTR)
aabbcc
Your satellite tracking list
Your tracking list is empty




NASA's NSSDC Master Catalog

Two Line Element Set (TLE):
1  6275U 72089A   18050.58425177 +.00000033 +00000-0 +30915-4 0  9997
2  6275 098.5379 262.6303 0034651 259.1238 100.6043 14.27762654350998
Source of the keplerian elements: AFSPC